Regional Weather Roundup
Issued by NWS Goodland, KS

Home | Current Version | Previous Version | Graphics & Text | Print | Product List | Glossary On
Versions: 1 2 3 4 5 6 7 8 9 10 11 12 13 14 15 16 17 18 19 20 21 22 23 24 25 26 27 28 29 30 31 32 33 34 35 36 37 38 39 40 41 42 43 44 45 46 47 48 49 50
000
ASUS43 KGLD 291059
RWRGLD

GOODLAND FORECAST AREA HOURLY WEATHER ROUNDUP
NATIONAL WEATHER SERVICE GOODLAND KS
400 AM MST THU JAN 29 2015

...OFFICIAL OBSERVATIONS...

CITY           SKY/WX    TMP DP  RH WIND       PRES   REMARKS
GOODLAND KS    CLEAR     30  26  85 N14       30.36R WCI  19
HILL CITY KS   CLEAR     35  28  75 N15       30.33R
IMPERIAL NEB   CLEAR     30  24  78 N15       30.36R WCI  19
MCCOOK NEB     CLEAR     31  25  78 N8        30.34R
AKRON CO       CLOUDY    36  24  62 NW12      30.39R
BURLINGTON CO  MOCLDY    34  26  72 N14       30.36R
LIMON CO       CLOUDY    32  26  78 NW9       30.38R
$$

...UNOFFICIAL OBSERVATIONS...

CITY           SKY/WX    TMP DP  RH WIND       PRES   REMARKS
COLBY KS       PTCLDY    32  32 100 NW12      30.36R
NORTON KS      CLEAR     34  25  69 NW17      30.30S
YUMA CO          N/A     35  29  79 N9          N/A
$$



USA.gov is the U.S. government's official web portal to all federal, state and local government web resources and services.